Location: Cottbus
(51.7000°N, 14.3000°E)
Time: 13:28:58
(UTC+01:00)

ISS - Pass Details

Date: 31 January 2019
Orbit: 403 x 411 km, 51.6° (Epoch: 21 February)

Event Time Altitude Azimuth Distance (km) Brightness Sun altitude
Rises 18:10:10 0° 264° (W) 2,334 2.1 -12.6°
Reaches altitude 10° 18:12:15 10° 264° (W) 1,475 0.5 -12.9°
Maximum altitude 18:15:33 89° 192° (SSW) 416 -3.9 -13.4°
Enters shadow 18:17:14 27° 86° (E) 831 -2.9 -13.7°
